Tracking 22458 objects as of 3-Mar-2021
HD Live streaming from Space Station
objects crossing your sky now

FENGYUN 2H AKM

Track FENGYUN 2H AKM now!


NORAD ID: 43497
Int'l Code: 2018-050C
Perigee: 35,492.9 km
Apogee: 36,213.7 km
Inclination: 0.1 °
Period: 1,439.1 minutes
Semi major axis: 42224 km
RCS: Unknown
Launch date: June 5, 2018
Source: People's Republic of China (PRC)
Launch site: Xichang Space Center, China (XSC)

Note: This is a ROCKET BODY
aabbcc
Your satellite tracking list
Your tracking list is empty




NASA's NSSDC Master Catalog

Two Line Element Set (TLE):
1 43497U 18050C   21060.26957858 -.00000301  00000-0  00000-0 0  9995
2 43497   0.1321 226.5614 0085358 138.8498 354.6553  1.00059816  9956
Source of the keplerian elements: AFSPC